Location: Unspecified
(54.1780°N, 0.0000°E)
Time: 18:12:13
(UTC+00:00)

Tiros 1 despin weight - Visible Passes

Search period start: 25 June 2019 00:00
Search period end: 05 July 2019 00:00
Orbit: 595 x 642 km, 48.2° (Epoch: 25 June)

Date Brightness Start Highest point End Pass type
(mag) Time Alt. Az. Time Alt. Az. Time Alt. Az.
25 Jun ? 00:35:33 10° WSW 00:39:40 38° S 00:43:46 10° ESE visible
25 Jun ? 02:16:45 10° WSW 02:20:38 31° SSW 02:24:32 10° SE visible
25 Jun ? 21:32:10 10° S 21:34:29 14° SE 21:36:47 10° ESE visible
25 Jun ? 23:11:11 10° SW 23:15:07 31° SSE 23:19:02 10° ESE visible
26 Jun ? 00:51:59 10° WSW 00:56:06 38° S 01:00:12 10° ESE visible
26 Jun ? 21:47:23 10° SSW 21:50:42 20° SSE 21:53:59 10° ESE visible
26 Jun ? 23:27:25 10° WSW 23:31:31 36° S 23:35:36 10° ESE visible
27 Jun ? 01:08:30 10° WSW 01:12:32 34° SSW 01:16:32 10° SE visible
27 Jun ? 22:03:13 10° SW 22:07:01 27° SSE 22:10:46 10° ESE visible
27 Jun ? 23:43:48 10° WSW 23:47:58 39° S 23:52:04 10° ESE visible
28 Jun ? 01:25:06 10° WSW 01:28:54 28° SSW 01:32:40 10° SE visible
28 Jun ? 22:19:21 10° SW 22:23:23 34° SSE 22:27:23 10° ESE visible
29 Jun ? 00:00:17 10° WSW 00:04:23 37° S 00:08:28 10° ESE visible
29 Jun ? 01:41:52 10° WSW 01:45:13 21° SSW 01:48:31 10° SSE visible
29 Jun ? 22:35:39 10° WSW 22:39:48 38° S 22:43:55 10° ESE visible
30 Jun ? 00:16:50 10° WSW 00:20:48 32° SSW 00:24:43 10° SE visible
30 Jun ? 01:59:02 10° WSW 02:01:26 14° SW 02:03:50 10° S visible
30 Jun ? 22:52:04 10° WSW 22:56:15 38° S 23:00:22 10° ESE visible
01 Jul ? 00:33:30 10° WSW 00:37:08 25° SSW 00:40:12 13° SSE visible
01 Jul ? 21:27:31 10° WSW 21:31:39 36° S 21:35:44 10° ESE visible
01 Jul ? 23:08:35 10° WSW 23:12:40 35° S 23:16:42 10° SE visible
02 Jul ? 00:50:23 10° WSW 00:53:25 18° SSW 00:53:57 18° SSW visible
02 Jul ? 21:43:53 10° WSW 21:48:05 39° S 21:52:14 10° ESE visible
02 Jul ? 23:25:10 10° WSW 23:29:03 29° SSW 23:31:36 17° SSE visible
03 Jul ? 01:07:55 10° WSW 01:08:36 11° SW 01:08:36 11° SW visible
03 Jul ? 22:00:21 10° WSW 22:04:31 38° S 22:08:38 10° ESE visible
03 Jul ? 23:41:54 10° WSW 23:45:22 22° SSW 23:46:33 20° S visible
04 Jul ? 22:16:54 10° WSW 22:20:55 33° SSW 22:24:39 11° SE visible
